Regional Weather Roundup
Issued by NWS

Home | Current Version | Previous Version | Graphics & Text | Print | Product List | Glossary On
Versions: 1 2 3 4 5 6 7 8 9 10 11 12 13 14 15 16 17 18 19 20 21 22 23 24 25 26 27 28 29 30 31 32 33 34 35 36 37 38 39 40 41 42 43 44 45 46 47 48 49 50
000
ASUS43 KOAX 161702
RWRNE

WEATHER ROUNDUP FOR NEBRASKA
NATIONAL WEATHER SERVICE OMAHA NE
1100 AM CST SAT DEC 16 2017

NOTES: SATELLITE DATA IS BEING USED TO AUGMENT CLOUD COVER ABOVE
       12000 FEET.
       "FAIR" INDICATES FEW OR NO CLOUDS BELOW 12,000 FEET WITH NO
       SIGNIFICANT WEATHER AND/OR OBSTRUCTIONS TO VISIBILITY.


NEZ001>004-019>022-054>056-161800-
NEBRASKA PANHANDLE

CITY           SKY/WX    TMP DP  RH WIND       PRES   REMARKS
SCOTTSBLUFF    CLOUDY    41  22  46 NE15G24   29.88R
ALLIANCE       CLOUDY    37  23  56 NE13      29.88R WCI  29
CHADRON        CLOUDY    36  25  64 N5        29.95R WCI  32
GORDON         CLOUDY    36  29  76 NE12      29.92S WCI  28
KIMBALL        CLOUDY    44  17  34 E20G25    29.84F
SIDNEY         CLOUDY    44  20  38 NE20      29.85R
$$

NEZ057>060-069>072-079>082-161800-
SOUTHWEST NEBRASKA

CITY           SKY/WX    TMP DP  RH WIND       PRES   REMARKS
NORTH PLATTE   CLOUDY    45  22  40 NE21G28   29.84R
IMPERIAL       CLOUDY    43  19  38 NE16      29.82R
LEXINGTON      CLOUDY    48  23  37 NE13      29.82S
MCCOOK         CLOUDY    48  20  32 NE14      29.80R
OGALLALA       CLOUDY    47  26  43 NE20G26   29.85R
$$

NEZ005>010-023>029-035>040-094-161800-
NORTH CENTRAL NEBRASKA

CITY           SKY/WX    TMP DP  RH WIND       PRES   REMARKS
VALENTINE      PTSUNNY   40  32  73 N14       29.91R WCI  32
AINSWORTH      CLOUDY    38  30  74 N13       29.90R WCI  30
BROKEN BOW     CLOUDY    44  26  49 N17       29.85R
O`NEILL        CLOUDY    38  29  70 N12       29.89R WCI  31
ORD            CLOUDY    40  29  64 NW8       29.85R WCI  34
THEDFORD       CLOUDY    42  28  59 N14G22    29.89R
$$

NEZ041-046>049-061>064-073>077-083>087-161800-
SOUTH CENTRAL NEBRASKA

CITY           SKY/WX    TMP DP  RH WIND       PRES   REMARKS
GRAND ISLAND   CLOUDY    48  26  42 NE13      29.84R
AURORA         CLOUDY    48  26  42 NE13      29.83R
HASTINGS       SUNNY     49  23  36 NE15      29.82R
HEBRON         SUNNY     45  22  40 CALM      29.82S
HOLDREGE       CLOUDY    51  24  35 NE17      29.79S
KEARNEY        MOSUNNY   51  24  34 NE16      29.82R
$$

NEZ011>018-030>034-042>045-161800-
NORTHEAST NEBRASKA

CITY           SKY/WX    TMP DP  RH WIND       PRES   REMARKS
NORFOLK        CLOUDY    43  27  53 N10       29.84R
ALBION         CLOUDY    43  30  60 N10       29.85R
BLAIR          CLOUDY    45  27  48 N8        29.84R
COLUMBUS       MOSUNNY   45  26  47 N10       29.87R
FREMONT        CLOUDY    44  26  49 N5        29.86R
TEKAMAH        MOSUNNY   44  26  49 N9        29.84R
WAYNE          CLOUDY    42  26  53 N13       29.85R
$$

NEZ050>053-065>068-078-088>093-161800-
SOUTHEAST NEBRASKA

CITY           SKY/WX    TMP DP  RH WIND       PRES   REMARKS
LINCOLN        SUNNY     45  23  42 CALM      29.86R
OMAHA EPPLEY   CLOUDY    44  23  43 N7        29.85R
BEATRICE       SUNNY     44  26  48 W6        29.84R
FALLS CITY     SUNNY     48  25  40 SW10      29.85R
NEBRASKA CITY  SUNNY     44  26  48 SW6       29.84S
PLATTSMOUTH    SUNNY     44  25  47 CALM      29.84R
$$

NEZ044-045-051>053-067-161800-
OMAHA AREA

CITY           SKY/WX    TMP DP  RH WIND       PRES   REMARKS
OMAHA EPPLEY   CLOUDY    44  23  43 N7        29.85R
BLAIR          CLOUDY    45  27  48 N8        29.84R
FREMONT        CLOUDY    44  26  49 N5        29.86R
MILLARD        CLOUDY    45  25  44 W3        29.84R
OFFUTT AFB     MOSUNNY   43  24  46 CALM      29.85R
PLATTSMOUTH    SUNNY     44  25  47 CALM      29.84R
WAHOO          FAIR      45  25  45 N9        29.85R
$$



USA.gov is the U.S. government's official web portal to all federal, state and local government web resources and services.